Terminal Aerodrome Forecast
Issued by NWS Twin Cities, MN

Home | Current Version | Previous Version | Text Only | Print | Product List | Glossary On
Versions: 1 2 3 4 5 6 7 8 9 10 11 12 13 14 15 16 17 18
566
FTUS43 KMPX 271536 AAA
TAFEAU
TAF AMD
KEAU 271536Z 2716/2812 08015G25KT P6SM SCT120 BKN150
     FM280100 08015G25KT 6SM -RA BR BKN050 OVC100
     FM280400 06012KT 4SM -RA OVC030
     FM281000 06010KT 3SM -RASN BR SCT015 OVC025=

USA.gov is the U.S. government's official web portal to all federal, state and local government web resources and services.